iso_date,Year,Hour,Min,DOY,POS_DOY,Lat,Lon,BP,Ts,Ta,has_bp,has_ts,has_ta,BuoyID,Buoy_Type,Buoy_Owner,Logistics,Hemisphere
2021-05-02T22:59:57Z,2021,23,0,122.9583,122.9583,-47.034,-16.968,1018.5,7.14,-999.0,yes,yes,no,300234065416660,BD2GHI,AOML,UNKNOWN,South
2021-05-03T00:04:01Z,2021,0,4,123.0028,123.0028,-47.046,-16.971,1018.2,7.15,-999.0,yes,yes,no,300234065416660,BD2GHI,AOML,UNKNOWN,South
2021-05-03T01:00:02Z,2021,1,0,123.0417,123.0417,-47.059,-16.97,1017.8,7.14,-999.0,yes,yes,no,300234065416660,BD2GHI,AOML,UNKNOWN,South
2021-05-03T02:03:59Z,2021,2,4,123.0861,123.0861,-90.0,-180.0,1017.6,7.14,-999.0,yes,yes,no,300234065416660,BD2GHI,AOML,UNKNOWN,South
2021-05-03T03:04:01Z,2021,3,4,123.1278,123.1278,-90.0,-180.0,1017.4,7.15,-999.0,yes,yes,no,300234065416660,BD2GHI,AOML,UNKNOWN,South
2021-05-03T04:03:56Z,2021,4,4,123.1694,123.1694,-90.0,-180.0,1016.0,7.15,-999.0,yes,yes,no,300234065416660,BD2GHI,AOML,UNKNOWN,South
2021-05-03T05:03:59Z,2021,5,4,123.2111,123.2111,-90.0,-180.0,1015.1,7.15,-999.0,yes,yes,no,300234065416660,BD2GHI,AOML,UNKNOWN,South
2021-05-03T06:04:01Z,2021,6,4,123.2528,123.2528,-47.121,-16.938,1014.0,7.15,-999.0,yes,yes,no,300234065416660,BD2GHI,AOML,UNKNOWN,South
2021-05-03T07:03:04Z,2021,7,3,123.2938,123.2938,-47.131,-16.936,1012.9,7.16,-999.0,yes,yes,no,300234065416660,BD2GHI,AOML,UNKNOWN,South
2021-05-03T08:02:58Z,2021,8,3,123.3354,123.3354,-47.14,-16.935,1011.7,7.17,-999.0,yes,yes,no,300234065416660,BD2GHI,AOML,UNKNOWN,South
2021-05-03T09:00:00Z,2021,9,0,123.375,123.375,-47.149,-16.934,1011.0,7.19,-999.0,yes,yes,no,300234065416660,BD2GHI,AOML,UNKNOWN,South
2021-05-03T10:00:02Z,2021,10,0,123.4167,123.4167,-47.16,-16.931,1011.0,7.21,-999.0,yes,yes,no,300234065416660,BD2GHI,AOML,UNKNOWN,South
2021-05-03T11:03:59Z,2021,11,4,123.4611,123.4611,-47.168,-16.931,1010.3,7.22,-999.0,yes,yes,no,300234065416660,BD2GHI,AOML,UNKNOWN,South
2021-05-03T12:04:01Z,2021,12,4,123.5028,123.5028,-90.0,-180.0,1010.5,7.23,-999.0,yes,yes,no,300234065416660,BD2GHI,AOML,UNKNOWN,South
2021-05-03T13:03:56Z,2021,13,4,123.5444,123.5444,-47.188,-16.93,1009.8,7.24,-999.0,yes,yes,no,300234065416660,BD2GHI,AOML,UNKNOWN,South
2021-05-03T14:02:58Z,2021,14,3,123.5854,123.5854,-47.197,-16.932,1009.8,7.24,-999.0,yes,yes,no,300234065416660,BD2GHI,AOML,UNKNOWN,South
2021-05-03T15:00:00Z,2021,15,0,123.625,123.625,-47.207,-16.932,1009.7,7.24,-999.0,yes,yes,no,300234065416660,BD2GHI,AOML,UNKNOWN,South
2021-05-03T16:03:56Z,2021,16,4,123.6694,123.6694,-47.217,-16.931,1009.9,7.24,-999.0,yes,yes,no,300234065416660,BD2GHI,AOML,UNKNOWN,South
2021-05-03T17:03:59Z,2021,17,4,123.7111,123.7111,-47.223,-16.929,1010.1,7.24,-999.0,yes,yes,no,300234065416660,BD2GHI,AOML,UNKNOWN,South
2021-05-03T18:00:00Z,2021,18,0,123.75,123.75,-47.231,-16.93,1009.9,7.25,-999.0,yes,yes,no,300234065416660,BD2GHI,AOML,UNKNOWN,South
2021-05-03T19:00:02Z,2021,19,0,123.7917,123.7917,-47.239,-16.932,1009.6,7.25,-999.0,yes,yes,no,300234065416660,BD2GHI,AOML,UNKNOWN,South
2021-05-03T20:02:58Z,2021,20,3,123.8354,123.8354,-47.249,-16.934,1009.7,7.25,-999.0,yes,yes,no,300234065416660,BD2GHI,AOML,UNKNOWN,South
2021-05-03T21:00:00Z,2021,21,0,123.875,123.875,-47.259,-16.935,1009.5,7.26,-999.0,yes,yes,no,300234065416660,BD2GHI,AOML,UNKNOWN,South
2021-05-03T22:00:02Z,2021,22,0,123.9167,123.9167,-47.271,-16.936,1009.7,7.26,-999.0,yes,yes,no,300234065416660,BD2GHI,AOML,UNKNOWN,South
2021-05-03T23:03:59Z,2021,23,4,123.9611,123.9611,-47.283,-16.936,1009.5,7.27,-999.0,yes,yes,no,300234065416660,BD2GHI,AOML,UNKNOWN,South
2021-05-04T00:04:01Z,2021,0,4,124.0028,124.0028,-47.292,-16.931,1009.5,7.28,-999.0,yes,yes,no,300234065416660,BD2GHI,AOML,UNKNOWN,South
2021-05-04T01:03:56Z,2021,1,4,124.0444,124.0444,-90.0,-180.0,1009.9,7.28,-999.0,yes,yes,no,300234065416660,BD2GHI,AOML,UNKNOWN,South
2021-05-04T02:03:59Z,2021,2,4,124.0861,124.0861,-90.0,-180.0,1009.4,7.29,-999.0,yes,yes,no,300234065416660,BD2GHI,AOML,UNKNOWN,South
2021-05-04T03:04:01Z,2021,3,4,124.1278,124.1278,-90.0,-180.0,1009.5,7.3,-999.0,yes,yes,no,300234065416660,BD2GHI,AOML,UNKNOWN,South
2021-05-04T04:03:56Z,2021,4,4,124.1694,124.1694,-90.0,-180.0,1009.0,7.3,-999.0,yes,yes,no,300234065416660,BD2GHI,AOML,UNKNOWN,South
2021-05-04T04:59:57Z,2021,5,0,124.2083,124.2083,-47.317,-16.923,1008.0,7.3,-999.0,yes,yes,no,300234065416660,BD2GHI,AOML,UNKNOWN,South
2021-05-04T06:04:01Z,2021,6,4,124.2528,124.2528,-90.0,-180.0,1007.8,7.3,-999.0,yes,yes,no,300234065416660,BD2GHI,AOML,UNKNOWN,South
2021-05-04T07:03:04Z,2021,7,3,124.2938,124.2938,-47.33,-16.93,1007.9,7.31,-999.0,yes,yes,no,300234065416660,BD2GHI,AOML,UNKNOWN,South
2021-05-04T07:59:57Z,2021,8,0,124.3333,124.3333,-47.338,-16.935,1007.2,7.31,-999.0,yes,yes,no,300234065416660,BD2GHI,AOML,UNKNOWN,South
2021-05-04T09:00:00Z,2021,9,0,124.375,124.375,-47.348,-16.938,1006.8,7.32,-999.0,yes,yes,no,300234065416660,BD2GHI,AOML,UNKNOWN,South
2021-05-04T10:00:02Z,2021,10,0,124.4167,124.4167,-47.356,-16.94,1006.2,7.32,-999.0,yes,yes,no,300234065416660,BD2GHI,AOML,UNKNOWN,South
2021-05-04T11:03:59Z,2021,11,4,124.4611,124.4611,-90.0,-180.0,1005.8,7.33,-999.0,yes,yes,no,300234065416660,BD2GHI,AOML,UNKNOWN,South
2021-05-04T12:00:00Z,2021,12,0,124.5,124.5,-47.376,-16.938,1005.0,7.34,-999.0,yes,yes,no,300234065416660,BD2GHI,AOML,UNKNOWN,South
2021-05-04T13:00:02Z,2021,13,0,124.5417,124.5417,-47.387,-16.936,1003.9,7.34,-999.0,yes,yes,no,300234065416660,BD2GHI,AOML,UNKNOWN,South
2021-05-04T13:59:57Z,2021,14,0,124.5833,124.5833,-47.397,-16.935,1003.7,7.34,-999.0,yes,yes,no,300234065416660,BD2GHI,AOML,UNKNOWN,South
2021-05-04T15:00:00Z,2021,15,0,124.625,124.625,-47.405,-16.93,1003.3,7.34,-999.0,yes,yes,no,300234065416660,BD2GHI,AOML,UNKNOWN,South
2021-05-04T16:00:02Z,2021,16,0,124.6667,124.6667,-47.413,-16.924,1003.1,7.34,-999.0,yes,yes,no,300234065416660,BD2GHI,AOML,UNKNOWN,South
2021-05-04T16:59:57Z,2021,17,0,124.7083,124.7083,-47.419,-16.916,1003.3,7.34,-999.0,yes,yes,no,300234065416660,BD2GHI,AOML,UNKNOWN,South
2021-05-04T18:00:00Z,2021,18,0,124.75,124.75,-47.423,-16.908,1003.3,7.33,-999.0,yes,yes,no,300234065416660,BD2GHI,AOML,UNKNOWN,South
2021-05-04T19:00:02Z,2021,19,0,124.7917,124.7917,-47.426,-16.899,1003.0,7.34,-999.0,yes,yes,no,300234065416660,BD2GHI,AOML,UNKNOWN,South
2021-05-04T19:59:57Z,2021,20,0,124.8333,124.8333,-47.427,-16.894,1002.6,7.34,-999.0,yes,yes,no,300234065416660,BD2GHI,AOML,UNKNOWN,South
2021-05-04T21:00:00Z,2021,21,0,124.875,124.875,-47.428,-16.893,1001.9,7.33,-999.0,yes,yes,no,300234065416660,BD2GHI,AOML,UNKNOWN,South
2021-05-04T22:00:02Z,2021,22,0,124.9167,124.9167,-47.429,-16.896,1000.9,7.34,-999.0,yes,yes,no,300234065416660,BD2GHI,AOML,UNKNOWN,South
2021-05-04T22:59:57Z,2021,23,0,124.9583,124.9583,-47.431,-16.903,1000.0,7.33,-999.0,yes,yes,no,300234065416660,BD2GHI,AOML,UNKNOWN,South
2021-05-05T00:00:00Z,2021,0,0,125.0,125.0,-47.435,-16.909,998.6,7.33,-999.0,yes,yes,no,300234065416660,BD2GHI,AOML,UNKNOWN,South
2021-05-05T01:01:03Z,2021,1,1,125.0424,125.0424,-47.443,-16.916,997.5,7.33,-999.0,yes,yes,no,300234065416660,BD2GHI,AOML,UNKNOWN,South
2021-05-05T02:03:59Z,2021,2,4,125.0861,125.0861,-90.0,-180.0,996.5,7.33,-999.0,yes,yes,no,300234065416660,BD2GHI,AOML,UNKNOWN,South
2021-05-05T04:03:56Z,2021,4,4,125.1694,125.1694,-90.0,-180.0,993.6,7.33,-999.0,yes,yes,no,300234065416660,BD2GHI,AOML,UNKNOWN,South
2021-05-05T05:02:58Z,2021,5,3,125.2104,125.2104,-47.5,-16.91,992.2,7.34,-999.0,yes,yes,no,300234065416660,BD2GHI,AOML,UNKNOWN,South
2021-05-05T06:04:01Z,2021,6,4,125.2528,125.2528,-47.516,-16.897,991.0,7.34,-999.0,yes,yes,no,300234065416660,BD2GHI,AOML,UNKNOWN,South
2021-05-05T08:03:59Z,2021,8,4,125.3361,125.3361,-90.0,-180.0,988.7,7.33,-999.0,yes,yes,no,300234065416660,BD2GHI,AOML,UNKNOWN,South
2021-05-05T09:04:01Z,2021,9,4,125.3778,125.3778,-90.0,-180.0,987.8,7.32,-999.0,yes,yes,no,300234065416660,BD2GHI,AOML,UNKNOWN,South
2021-05-05T10:03:56Z,2021,10,4,125.4194,125.4194,-90.0,-180.0,986.9,7.33,-999.0,yes,yes,no,300234065416660,BD2GHI,AOML,UNKNOWN,South
2021-05-05T11:03:59Z,2021,11,4,125.4611,125.4611,-90.0,-180.0,985.5,7.33,-999.0,yes,yes,no,300234065416660,BD2GHI,AOML,UNKNOWN,South
2021-05-05T13:03:56Z,2021,13,4,125.5444,125.5444,-90.0,-180.0,985.9,7.33,-999.0,yes,yes,no,300234065416660,BD2GHI,AOML,UNKNOWN,South
2021-05-05T14:03:59Z,2021,14,4,125.5861,125.5861,-90.0,-180.0,985.7,7.32,-999.0,yes,yes,no,300234065416660,BD2GHI,AOML,UNKNOWN,South
2021-05-05T15:04:01Z,2021,15,4,125.6278,125.6278,-90.0,-180.0,985.2,7.31,-999.0,yes,yes,no,300234065416660,BD2GHI,AOML,UNKNOWN,South
2021-05-05T16:03:56Z,2021,16,4,125.6694,125.6694,-47.508,-16.821,985.7,7.31,-999.0,yes,yes,no,300234065416660,BD2GHI,AOML,UNKNOWN,South
2021-05-05T16:59:57Z,2021,17,0,125.7083,125.7083,-47.509,-16.841,988.8,7.31,-999.0,yes,yes,no,300234065416660,BD2GHI,AOML,UNKNOWN,South
2021-05-05T18:00:00Z,2021,18,0,125.75,125.75,-47.513,-16.863,989.4,7.3,-999.0,yes,yes,no,300234065416660,BD2GHI,AOML,UNKNOWN,South
2021-05-05T19:03:56Z,2021,19,4,125.7944,125.7944,-47.523,-16.886,990.9,7.28,-999.0,yes,yes,no,300234065416660,BD2GHI,AOML,UNKNOWN,South
2021-05-05T20:03:59Z,2021,20,4,125.8361,125.8361,-47.536,-16.904,992.1,7.28,-999.0,yes,yes,no,300234065416660,BD2GHI,AOML,UNKNOWN,South
2021-05-05T21:04:01Z,2021,21,4,125.8778,125.8778,-47.552,-16.917,993.3,7.28,-999.0,yes,yes,no,300234065416660,BD2GHI,AOML,UNKNOWN,South
2021-05-05T22:03:56Z,2021,22,4,125.9194,125.9194,-90.0,-180.0,995.0,7.27,-999.0,yes,yes,no,300234065416660,BD2GHI,AOML,UNKNOWN,South
2021-05-05T23:03:59Z,2021,23,4,125.9611,125.9611,-47.583,-16.914,996.5,7.27,-999.0,yes,yes,no,300234065416660,BD2GHI,AOML,UNKNOWN,South
2021-05-06T00:00:00Z,2021,0,0,126.0,126.0,-47.595,-16.902,997.4,7.27,-999.0,yes,yes,no,300234065416660,BD2GHI,AOML,UNKNOWN,South
2021-05-06T01:00:02Z,2021,1,0,126.0417,126.0417,-47.606,-16.885,998.0,7.26,-999.0,yes,yes,no,300234065416660,BD2GHI,AOML,UNKNOWN,South
2021-05-06T02:03:59Z,2021,2,4,126.0861,126.0861,-47.611,-16.863,999.7,7.25,-999.0,yes,yes,no,300234065416660,BD2GHI,AOML,UNKNOWN,South
2021-05-06T03:02:00Z,2021,3,2,126.1264,126.1264,-47.611,-16.844,1001.2,7.26,-999.0,yes,yes,no,300234065416660,BD2GHI,AOML,UNKNOWN,South
2021-05-06T04:00:02Z,2021,4,0,126.1667,126.1667,-47.606,-16.83,1001.8,7.26,-999.0,yes,yes,no,300234065416660,BD2GHI,AOML,UNKNOWN,South
2021-05-06T04:59:57Z,2021,5,0,126.2083,126.2083,-47.598,-16.822,1002.6,7.25,-999.0,yes,yes,no,300234065416660,BD2GHI,AOML,UNKNOWN,South
2021-05-06T06:04:01Z,2021,6,4,126.2528,126.2528,-90.0,-180.0,1003.9,7.25,-999.0,yes,yes,no,300234065416660,BD2GHI,AOML,UNKNOWN,South
2021-05-06T07:03:56Z,2021,7,4,126.2944,126.2944,-90.0,-180.0,1004.9,7.25,-999.0,yes,yes,no,300234065416660,BD2GHI,AOML,UNKNOWN,South
2021-05-06T08:01:58Z,2021,8,2,126.3347,126.3347,-47.574,-16.834,1005.6,7.25,-999.0,yes,yes,no,300234065416660,BD2GHI,AOML,UNKNOWN,South
2021-05-06T09:00:00Z,2021,9,0,126.375,126.375,-47.574,-16.851,1005.9,7.25,-999.0,yes,yes,no,300234065416660,BD2GHI,AOML,UNKNOWN,South
2021-05-06T10:00:02Z,2021,10,0,126.4167,126.4167,-47.578,-16.869,1006.4,7.24,-999.0,yes,yes,no,300234065416660,BD2GHI,AOML,UNKNOWN,South
2021-05-06T10:59:57Z,2021,11,0,126.4583,126.4583,-47.588,-16.884,1006.6,7.24,-999.0,yes,yes,no,300234065416660,BD2GHI,AOML,UNKNOWN,South
2021-05-06T12:00:00Z,2021,12,0,126.5,126.5,-47.603,-16.895,1006.7,7.24,-999.0,yes,yes,no,300234065416660,BD2GHI,AOML,UNKNOWN,South
2021-05-06T13:03:04Z,2021,13,3,126.5438,126.5438,-47.622,-16.9,1005.6,7.25,-999.0,yes,yes,no,300234065416660,BD2GHI,AOML,UNKNOWN,South
2021-05-06T13:59:57Z,2021,14,0,126.5833,126.5833,-47.641,-16.899,1005.0,7.25,-999.0,yes,yes,no,300234065416660,BD2GHI,AOML,UNKNOWN,South
2021-05-06T15:04:01Z,2021,15,4,126.6278,126.6278,-90.0,-180.0,1004.6,7.26,-999.0,yes,yes,no,300234065416660,BD2GHI,AOML,UNKNOWN,South
2021-05-06T16:00:02Z,2021,16,0,126.6667,126.6667,-47.681,-16.866,1004.2,7.25,-999.0,yes,yes,no,300234065416660,BD2GHI,AOML,UNKNOWN,South
2021-05-06T17:03:59Z,2021,17,4,126.7111,126.7111,-47.694,-16.837,1004.1,7.25,-999.0,yes,yes,no,300234065416660,BD2GHI,AOML,UNKNOWN,South
2021-05-06T18:00:00Z,2021,18,0,126.75,126.75,-47.698,-16.81,1003.6,7.25,-999.0,yes,yes,no,300234065416660,BD2GHI,AOML,UNKNOWN,South
2021-05-06T19:00:02Z,2021,19,0,126.7917,126.7917,-47.699,-16.782,1003.3,7.24,-999.0,yes,yes,no,300234065416660,BD2GHI,AOML,UNKNOWN,South
2021-05-06T19:59:57Z,2021,20,0,126.8333,126.8333,-47.697,-16.759,1003.2,7.24,-999.0,yes,yes,no,300234065416660,BD2GHI,AOML,UNKNOWN,South
2021-05-06T21:00:00Z,2021,21,0,126.875,126.875,-47.688,-16.743,1002.8,7.24,-999.0,yes,yes,no,300234065416660,BD2GHI,AOML,UNKNOWN,South
2021-05-06T22:00:02Z,2021,22,0,126.9167,126.9167,-47.679,-16.735,1002.0,7.24,-999.0,yes,yes,no,300234065416660,BD2GHI,AOML,UNKNOWN,South
2021-05-06T22:59:57Z,2021,23,0,126.9583,126.9583,-47.673,-16.735,1001.4,7.24,-999.0,yes,yes,no,300234065416660,BD2GHI,AOML,UNKNOWN,South
2021-05-07T00:00:00Z,2021,0,0,127.0,127.0,-47.669,-16.741,1000.6,7.24,-999.0,yes,yes,no,300234065416660,BD2GHI,AOML,UNKNOWN,South
2021-05-07T01:00:02Z,2021,1,0,127.0417,127.0417,-47.668,-16.756,999.5,7.24,-999.0,yes,yes,no,300234065416660,BD2GHI,AOML,UNKNOWN,South
2021-05-07T01:59:57Z,2021,2,0,127.0833,127.0833,-47.673,-16.77,998.8,7.24,-999.0,yes,yes,no,300234065416660,BD2GHI,AOML,UNKNOWN,South
2021-05-07T03:00:00Z,2021,3,0,127.125,127.125,-47.686,-16.779,997.6,7.24,-999.0,yes,yes,no,300234065416660,BD2GHI,AOML,UNKNOWN,South
2021-05-07T04:03:56Z,2021,4,4,127.1694,127.1694,-47.705,-16.786,996.2,7.24,-999.0,yes,yes,no,300234065416660,BD2GHI,AOML,UNKNOWN,South
2021-05-07T04:59:57Z,2021,5,0,127.2083,127.2083,-47.721,-16.785,995.0,7.25,-999.0,yes,yes,no,300234065416660,BD2GHI,AOML,UNKNOWN,South
2021-05-07T06:00:00Z,2021,6,0,127.25,127.25,-47.741,-16.779,994.2,7.25,-999.0,yes,yes,no,300234065416660,BD2GHI,AOML,UNKNOWN,South
2021-05-07T07:00:02Z,2021,7,0,127.2917,127.2917,-47.761,-16.763,994.1,7.25,-999.0,yes,yes,no,300234065416660,BD2GHI,AOML,UNKNOWN,South
2021-05-07T07:59:57Z,2021,8,0,127.3333,127.3333,-47.777,-16.738,993.4,7.26,-999.0,yes,yes,no,300234065416660,BD2GHI,AOML,UNKNOWN,South
2021-05-07T09:00:00Z,2021,9,0,127.375,127.375,-47.789,-16.709,994.4,7.26,-999.0,yes,yes,no,300234065416660,BD2GHI,AOML,UNKNOWN,South
2021-05-07T10:00:02Z,2021,10,0,127.4167,127.4167,-47.793,-16.68,995.0,7.26,-999.0,yes,yes,no,300234065416660,BD2GHI,AOML,UNKNOWN,South
2021-05-07T10:59:57Z,2021,11,0,127.4583,127.4583,-47.792,-16.651,995.1,7.27,-999.0,yes,yes,no,300234065416660,BD2GHI,AOML,UNKNOWN,South
2021-05-07T12:00:00Z,2021,12,0,127.5,127.5,-47.784,-16.626,995.2,7.29,-999.0,yes,yes,no,300234065416660,BD2GHI,AOML,UNKNOWN,South
2021-05-07T13:00:02Z,2021,13,0,127.5417,127.5417,-47.772,-16.612,994.8,7.3,-999.0,yes,yes,no,300234065416660,BD2GHI,AOML,UNKNOWN,South
2021-05-07T13:59:57Z,2021,14,0,127.5833,127.5833,-47.76,-16.607,993.5,7.3,-999.0,yes,yes,no,300234065416660,BD2GHI,AOML,UNKNOWN,South
2021-05-07T15:00:00Z,2021,15,0,127.625,127.625,-47.748,-16.613,992.9,7.3,-999.0,yes,yes,no,300234065416660,BD2GHI,AOML,UNKNOWN,South
2021-05-07T16:00:02Z,2021,16,0,127.6667,127.6667,-47.74,-16.627,992.3,7.3,-999.0,yes,yes,no,300234065416660,BD2GHI,AOML,UNKNOWN,South
2021-05-07T16:59:57Z,2021,17,0,127.7083,127.7083,-47.74,-16.649,991.4,7.3,-999.0,yes,yes,no,300234065416660,BD2GHI,AOML,UNKNOWN,South
2021-05-07T18:00:00Z,2021,18,0,127.75,127.75,-47.745,-16.673,991.6,7.29,-999.0,yes,yes,no,300234065416660,BD2GHI,AOML,UNKNOWN,South
2021-05-07T19:01:03Z,2021,19,1,127.7924,127.7924,-47.753,-16.695,993.4,7.27,-999.0,yes,yes,no,300234065416660,BD2GHI,AOML,UNKNOWN,South
2021-05-07T20:00:57Z,2021,20,1,127.834,127.834,-47.774,-16.712,994.9,7.25,-999.0,yes,yes,no,300234065416660,BD2GHI,AOML,UNKNOWN,South
2021-05-07T21:00:00Z,2021,21,0,127.875,127.875,-47.788,-16.72,995.8,7.24,-999.0,yes,yes,no,300234065416660,BD2GHI,AOML,UNKNOWN,South
2021-05-07T22:00:02Z,2021,22,0,127.9167,127.9167,-47.807,-16.719,997.0,7.23,-999.0,yes,yes,no,300234065416660,BD2GHI,AOML,UNKNOWN,South
2021-05-07T23:03:59Z,2021,23,4,127.9611,127.9611,-47.831,-16.707,998.7,7.23,-999.0,yes,yes,no,300234065416660,BD2GHI,AOML,UNKNOWN,South
2021-05-08T00:00:00Z,2021,0,0,128.0,128.0,-47.844,-16.692,999.4,7.22,-999.0,yes,yes,no,300234065416660,BD2GHI,AOML,UNKNOWN,South
2021-05-08T01:00:02Z,2021,1,0,128.0417,128.0417,-47.855,-16.666,1000.3,7.21,-999.0,yes,yes,no,300234065416660,BD2GHI,AOML,UNKNOWN,South
2021-05-08T02:03:59Z,2021,2,4,128.0861,128.0861,-47.861,-16.634,1001.5,7.21,-999.0,yes,yes,no,300234065416660,BD2GHI,AOML,UNKNOWN,South
2021-05-08T03:00:00Z,2021,3,0,128.125,128.125,-47.863,-16.61,1002.5,7.19,-999.0,yes,yes,no,300234065416660,BD2GHI,AOML,UNKNOWN,South
2021-05-08T04:02:03Z,2021,4,2,128.1681,128.1681,-47.855,-16.585,1003.8,7.2,-999.0,yes,yes,no,300234065416660,BD2GHI,AOML,UNKNOWN,South
2021-05-08T04:59:57Z,2021,5,0,128.2083,128.2083,-47.844,-16.573,1005.1,7.19,-999.0,yes,yes,no,300234065416660,BD2GHI,AOML,UNKNOWN,South
2021-05-08T06:00:00Z,2021,6,0,128.25,128.25,-47.834,-16.568,1006.3,7.18,-999.0,yes,yes,no,300234065416660,BD2GHI,AOML,UNKNOWN,South
2021-05-08T07:00:02Z,2021,7,0,128.2917,128.2917,-47.826,-16.568,1007.6,7.18,-999.0,yes,yes,no,300234065416660,BD2GHI,AOML,UNKNOWN,South
2021-05-08T07:59:57Z,2021,8,0,128.3333,128.3333,-47.82,-16.574,1008.9,7.17,-999.0,yes,yes,no,300234065416660,BD2GHI,AOML,UNKNOWN,South
2021-05-08T09:00:00Z,2021,9,0,128.375,128.375,-47.818,-16.583,1010.5,7.17,-999.0,yes,yes,no,300234065416660,BD2GHI,AOML,UNKNOWN,South
2021-05-08T10:00:02Z,2021,10,0,128.4167,128.4167,-47.82,-16.596,1011.8,7.17,-999.0,yes,yes,no,300234065416660,BD2GHI,AOML,UNKNOWN,South
2021-05-08T10:59:57Z,2021,11,0,128.4583,128.4583,-47.826,-16.606,1012.8,7.18,-999.0,yes,yes,no,300234065416660,BD2GHI,AOML,UNKNOWN,South
2021-05-08T12:00:00Z,2021,12,0,128.5,128.5,-47.835,-16.614,1013.8,7.17,-999.0,yes,yes,no,300234065416660,BD2GHI,AOML,UNKNOWN,South
2021-05-08T13:00:02Z,2021,13,0,128.5417,128.5417,-47.85,-16.621,1014.8,7.18,-999.0,yes,yes,no,300234065416660,BD2GHI,AOML,UNKNOWN,South
2021-05-08T14:03:59Z,2021,14,4,128.5861,128.5861,-47.869,-16.623,1015.4,7.18,-999.0,yes,yes,no,300234065416660,BD2GHI,AOML,UNKNOWN,South
2021-05-08T15:00:00Z,2021,15,0,128.625,128.625,-47.885,-16.616,1015.6,7.18,-999.0,yes,yes,no,300234065416660,BD2GHI,AOML,UNKNOWN,South
2021-05-08T16:00:02Z,2021,16,0,128.6667,128.6667,-47.902,-16.598,1016.0,7.17,-999.0,yes,yes,no,300234065416660,BD2GHI,AOML,UNKNOWN,South
2021-05-08T17:00:57Z,2021,17,1,128.709,128.709,-47.915,-16.574,1016.8,7.17,-999.0,yes,yes,no,300234065416660,BD2GHI,AOML,UNKNOWN,South
2021-05-08T18:00:00Z,2021,18,0,128.75,128.75,-47.927,-16.549,1017.4,7.17,-999.0,yes,yes,no,300234065416660,BD2GHI,AOML,UNKNOWN,South
2021-05-08T19:02:03Z,2021,19,2,128.7931,128.7931,-47.927,-16.517,1017.9,7.17,-999.0,yes,yes,no,300234065416660,BD2GHI,AOML,UNKNOWN,South
2021-05-08T19:59:57Z,2021,20,0,128.8333,128.8333,-47.924,-16.489,1018.6,7.17,-999.0,yes,yes,no,300234065416660,BD2GHI,AOML,UNKNOWN,South
2021-05-08T21:00:00Z,2021,21,0,128.875,128.875,-47.917,-16.467,1019.4,7.18,-999.0,yes,yes,no,300234065416660,BD2GHI,AOML,UNKNOWN,South
2021-05-08T22:02:03Z,2021,22,2,128.9181,128.9181,-47.907,-16.451,1019.8,7.16,-999.0,yes,yes,no,300234065416660,BD2GHI,AOML,UNKNOWN,South
2021-05-08T22:59:57Z,2021,23,0,128.9583,128.9583,-47.896,-16.446,1019.9,7.17,-999.0,yes,yes,no,300234065416660,BD2GHI,AOML,UNKNOWN,South
2021-05-09T00:00:00Z,2021,0,0,129.0,129.0,-47.886,-16.448,1020.4,7.16,-999.0,yes,yes,no,300234065416660,BD2GHI,AOML,UNKNOWN,South
2021-05-09T01:01:03Z,2021,1,1,129.0424,129.0424,-47.881,-16.457,1020.1,7.15,-999.0,yes,yes,no,300234065416660,BD2GHI,AOML,UNKNOWN,South
2021-05-09T01:59:57Z,2021,2,0,129.0833,129.0833,-47.88,-16.468,1019.5,7.16,-999.0,yes,yes,no,300234065416660,BD2GHI,AOML,UNKNOWN,South
2021-05-09T03:00:00Z,2021,3,0,129.125,129.125,-47.886,-16.48,1019.7,7.16,-999.0,yes,yes,no,300234065416660,BD2GHI,AOML,UNKNOWN,South
2021-05-09T04:03:56Z,2021,4,4,129.1694,129.1694,-47.897,-16.49,1019.5,7.16,-999.0,yes,yes,no,300234065416660,BD2GHI,AOML,UNKNOWN,South
2021-05-09T04:59:57Z,2021,5,0,129.2083,129.2083,-47.911,-16.495,1019.0,7.15,-999.0,yes,yes,no,300234065416660,BD2GHI,AOML,UNKNOWN,South
2021-05-09T06:00:00Z,2021,6,0,129.25,129.25,-47.927,-16.492,1018.9,7.15,-999.0,yes,yes,no,300234065416660,BD2GHI,AOML,UNKNOWN,South
2021-05-09T07:00:02Z,2021,7,0,129.2917,129.2917,-47.944,-16.483,1019.2,7.16,-999.0,yes,yes,no,300234065416660,BD2GHI,AOML,UNKNOWN,South
2021-05-09T08:00:57Z,2021,8,1,129.334,129.334,-47.961,-16.466,1019.3,7.14,-999.0,yes,yes,no,300234065416660,BD2GHI,AOML,UNKNOWN,South
2021-05-09T09:01:00Z,2021,9,1,129.3757,129.3757,-47.973,-16.444,1019.2,7.15,-999.0,yes,yes,no,300234065416660,BD2GHI,AOML,UNKNOWN,South
2021-05-09T10:00:02Z,2021,10,0,129.4167,129.4167,-47.98,-16.417,1018.8,7.18,-999.0,yes,yes,no,300234065416660,BD2GHI,AOML,UNKNOWN,South
2021-05-09T10:59:57Z,2021,11,0,129.4583,129.4583,-47.982,-16.389,1018.7,7.18,-999.0,yes,yes,no,300234065416660,BD2GHI,AOML,UNKNOWN,South
2021-05-09T12:00:00Z,2021,12,0,129.5,129.5,-47.98,-16.364,1018.5,7.18,-999.0,yes,yes,no,300234065416660,BD2GHI,AOML,UNKNOWN,South
2021-05-09T13:00:02Z,2021,13,0,129.5417,129.5417,-47.974,-16.343,1018.0,7.18,-999.0,yes,yes,no,300234065416660,BD2GHI,AOML,UNKNOWN,South
2021-05-09T14:03:59Z,2021,14,4,129.5861,129.5861,-47.965,-16.327,1017.2,7.18,-999.0,yes,yes,no,300234065416660,BD2GHI,AOML,UNKNOWN,South
2021-05-09T15:00:00Z,2021,15,0,129.625,129.625,-47.956,-16.32,1016.9,7.18,-999.0,yes,yes,no,300234065416660,BD2GHI,AOML,UNKNOWN,South
2021-05-09T16:00:02Z,2021,16,0,129.6667,129.6667,-47.948,-16.318,1016.6,7.18,-999.0,yes,yes,no,300234065416660,BD2GHI,AOML,UNKNOWN,South
2021-05-09T16:59:57Z,2021,17,0,129.7083,129.7083,-47.942,-16.321,1016.2,7.17,-999.0,yes,yes,no,300234065416660,BD2GHI,AOML,UNKNOWN,South
2021-05-09T18:02:00Z,2021,18,2,129.7514,129.7514,-47.94,-16.33,1016.0,7.17,-999.0,yes,yes,no,300234065416660,BD2GHI,AOML,UNKNOWN,South
2021-05-09T19:00:02Z,2021,19,0,129.7917,129.7917,-47.941,-16.338,1015.8,7.17,-999.0,yes,yes,no,300234065416660,BD2GHI,AOML,UNKNOWN,South
2021-05-09T19:59:57Z,2021,20,0,129.8333,129.8333,-47.947,-16.349,1015.7,7.17,-999.0,yes,yes,no,300234065416660,BD2GHI,AOML,UNKNOWN,South
2021-05-09T21:00:00Z,2021,21,0,129.875,129.875,-47.958,-16.355,1015.3,7.18,-999.0,yes,yes,no,300234065416660,BD2GHI,AOML,UNKNOWN,South
2021-05-09T22:00:02Z,2021,22,0,129.9167,129.9167,-47.97,-16.354,1015.3,7.17,-999.0,yes,yes,no,300234065416660,BD2GHI,AOML,UNKNOWN,South
2021-05-09T22:59:57Z,2021,23,0,129.9583,129.9583,-47.985,-16.349,1014.7,7.17,-999.0,yes,yes,no,300234065416660,BD2GHI,AOML,UNKNOWN,South
2021-05-10T00:00:00Z,2021,0,0,130.0,130.0,-47.997,-16.338,1014.2,7.18,-999.0,yes,yes,no,300234065416660,BD2GHI,AOML,UNKNOWN,South
2021-05-10T01:00:02Z,2021,1,0,130.0417,130.0417,-48.008,-16.321,1013.6,7.18,-999.0,yes,yes,no,300234065416660,BD2GHI,AOML,UNKNOWN,South
2021-05-10T01:59:57Z,2021,2,0,130.0833,130.0833,-48.017,-16.3,1013.7,7.18,-999.0,yes,yes,no,300234065416660,BD2GHI,AOML,UNKNOWN,South
2021-05-10T03:00:00Z,2021,3,0,130.125,130.125,-48.022,-16.276,1013.7,7.18,-999.0,yes,yes,no,300234065416660,BD2GHI,AOML,UNKNOWN,South
2021-05-10T04:00:02Z,2021,4,0,130.1667,130.1667,-48.021,-16.252,1013.5,7.18,-999.0,yes,yes,no,300234065416660,BD2GHI,AOML,UNKNOWN,South
2021-05-10T04:59:57Z,2021,5,0,130.2083,130.2083,-48.018,-16.231,1013.5,7.18,-999.0,yes,yes,no,300234065416660,BD2GHI,AOML,UNKNOWN,South
2021-05-10T06:01:00Z,2021,6,1,130.2507,130.2507,-48.015,-16.217,1013.4,7.18,-999.0,yes,yes,no,300234065416660,BD2GHI,AOML,UNKNOWN,South
2021-05-10T07:00:02Z,2021,7,0,130.2917,130.2917,-48.003,-16.2,1013.5,7.18,-999.0,yes,yes,no,300234065416660,BD2GHI,AOML,UNKNOWN,South
2021-05-10T08:03:59Z,2021,8,4,130.3361,130.3361,-47.994,-16.194,1013.4,7.18,-999.0,yes,yes,no,300234065416660,BD2GHI,AOML,UNKNOWN,South
2021-05-10T09:04:01Z,2021,9,4,130.3778,130.3778,-47.984,-16.194,1013.9,7.19,-999.0,yes,yes,no,300234065416660,BD2GHI,AOML,UNKNOWN,South
2021-05-10T10:00:02Z,2021,10,0,130.4167,130.4167,-47.977,-16.197,1014.3,7.2,-999.0,yes,yes,no,300234065416660,BD2GHI,AOML,UNKNOWN,South